Weather History for Mora, MN

Change the Weather History Date:

Thursday, October 3, 2013

  Actual Average Record
Temperature  
Mean Temperature 52 °F -  
Max Temperature 53 °F 64 °F 84 °F (1997)
Min Temperature 51 °F 36 °F 18 °F (1989)
Degree Days  
Heating Degree Days 13    
Growing Degree Days 2 (Base 50)    
Moisture  
Dew Point 49 °F    
Average Humidity 89    
Maximum Humidity 94    
Minimum Humidity 82    
Precipitation  
Precipitation 0.00 in - - ()
Sea Level Pressure  
Sea Level Pressure 29.94 in    
Wind  
Wind Speed 4 mph (NE)    
Max Wind Speed 10 mph    
Max Gust Speed 17 mph    
Visibility 9 miles    
Events      
Averages and records for this station are not official NWS values.
T = Trace of Precipitation, MM = Missing Value Source: NWS Daily Summary

Daily Weather History Graph

Daily Weather History Graph

Search for Another Location

Airport:

Trip Planner

Search our weather history database for the weather conditions in past years. The results will help you decide how hot, cold, wet, or windy it might be!

Date:

Astronomy

Oct. 03, 2013 Rise Set
Actual Time 7:14 AM CDT 6:48 PM CDT
Civil Twilight 6:44 AM CDT 7:18 PM CDT
Nautical Twilight 6:10 AM CDT 7:53 PM CDT
Astronomical Twilight 5:34 AM CDT 8:27 PM CDT
Moon 5:45 AM CDT (10/3) 5:58 PM CDT (10/3)
Length of Visible Light 12h 33m
Length of Day
11h 34m
Waning Crescent, 2% of the Moon is Illuminated
Oct 3
Waning Crescent
Oct 4
New
Oct 11
First Quarter
Oct 18
Full
Oct 26
Last Quarter

Hourly Weather History & Observations

Time (CDT) Temp. Dew Point Humidity Pressure Visibility Wind Dir Wind Speed Gust Speed Precip Events Conditions
12:05 AM 51.8 °F 48.2 °F 88% 29.92 in 10.0 mi ENE 8.1 mph - N/A   Mostly Cloudy
12:25 AM 51.8 °F 48.2 °F 88% 29.92 in 10.0 mi ENE 5.8 mph - N/A   Mostly Cloudy
12:45 AM 51.8 °F 48.2 °F 88% 29.92 in 10.0 mi NE 4.6 mph - N/A   Overcast
1:05 AM 51.8 °F 48.2 °F 88% 29.92 in 10.0 mi ENE 4.6 mph - N/A   Overcast
1:25 AM 51.8 °F 48.2 °F 88% 29.92 in 10.0 mi ENE 4.6 mph - N/A   Overcast
1:45 AM 51.8 °F 48.2 °F 88% 29.92 in 10.0 mi NE 4.6 mph - N/A   Overcast
2:05 AM 51.8 °F 48.2 °F 88% 29.92 in 10.0 mi ENE 3.5 mph - N/A   Overcast
2:25 AM 51.8 °F 48.2 °F 88% 29.93 in 10.0 mi NE 5.8 mph - N/A   Overcast
2:45 AM 51.8 °F 48.2 °F 88% 29.93 in 10.0 mi NE 4.6 mph - N/A   Overcast
3:05 AM 51.8 °F 46.4 °F 82% 29.92 in 10.0 mi Calm Calm - N/A   Overcast
3:25 AM 51.8 °F 46.4 °F 82% 29.92 in 10.0 mi Calm Calm - N/A   Overcast
3:45 AM 51.8 °F 46.4 °F 82% 29.92 in 10.0 mi Calm Calm - N/A   Overcast
4:05 AM 51.8 °F 46.4 °F 82% 29.92 in 10.0 mi ENE 3.5 mph - N/A   Overcast
4:25 AM 51.8 °F 48.2 °F 88% 29.92 in 10.0 mi ENE 3.5 mph - N/A   Overcast
4:45 AM 51.8 °F 48.2 °F 88% 29.92 in 10.0 mi Calm Calm - N/A   Overcast
5:05 AM 51.8 °F 48.2 °F 88% 29.92 in 10.0 mi Calm Calm - N/A   Overcast
5:25 AM 51.8 °F 48.2 °F 88% 29.92 in 10.0 mi Calm Calm - N/A   Overcast
5:45 AM 51.8 °F 48.2 °F 88% 29.92 in 10.0 mi Calm Calm - N/A   Overcast
6:05 AM 51.8 °F 48.2 °F 88% 29.94 in 10.0 mi ENE 3.5 mph - N/A   Overcast
6:25 AM 51.8 °F 48.2 °F 88% 29.93 in 10.0 mi NE 4.6 mph - N/A   Overcast
6:45 AM 51.8 °F 48.2 °F 88% 29.92 in 10.0 mi ENE 4.6 mph - N/A   Overcast
7:05 AM 51.8 °F 48.2 °F 88% 29.93 in 10.0 mi NE 3.5 mph - N/A   Overcast
7:25 AM 51.8 °F 48.2 °F 88% 29.94 in 10.0 mi NE 4.6 mph - N/A   Overcast
7:45 AM 51.8 °F 48.2 °F 88% 29.94 in 10.0 mi NE 4.6 mph - N/A   Overcast
8:05 AM 51.8 °F 48.2 °F 88% 29.95 in 10.0 mi ENE 4.6 mph - N/A   Overcast
8:25 AM 51.8 °F 48.2 °F 88% 29.94 in 10.0 mi NE 3.5 mph - N/A   Overcast
8:45 AM 51.8 °F 48.2 °F 88% 29.93 in 10.0 mi NNE 3.5 mph - N/A   Overcast
9:05 AM 51.8 °F 48.2 °F 88% 29.94 in 10.0 mi NE 3.5 mph - N/A   Overcast
9:25 AM 51.8 °F 48.2 °F 88% 29.94 in 10.0 mi NE 3.5 mph - N/A   Overcast
9:45 AM 51.8 °F 50.0 °F 94% 29.94 in 10.0 mi NE 6.9 mph - N/A   Overcast
10:05 AM 53.6 °F 50.0 °F 88% 29.93 in 10.0 mi NE 5.8 mph - N/A   Overcast
10:25 AM 53.6 °F 50.0 °F 88% 29.93 in 10.0 mi ENE 8.1 mph - N/A   Overcast
10:45 AM 53.6 °F 50.0 °F 88% 29.93 in 10.0 mi ENE 4.6 mph - N/A   Overcast
11:05 AM 53.6 °F 50.0 °F 88% 29.93 in 10.0 mi ENE 6.9 mph - N/A   Overcast
11:25 AM 53.6 °F 50.0 °F 88% 29.93 in 10.0 mi ENE 5.8 mph - N/A   Overcast
11:45 AM 53.6 °F 50.0 °F 88% 29.92 in 10.0 mi NE 4.6 mph - N/A   Overcast
12:05 PM 53.6 °F 50.0 °F 88% 29.92 in 10.0 mi NE 4.6 mph - N/A   Overcast
12:25 PM 53.6 °F 48.2 °F 82% 29.93 in 10.0 mi NE 4.6 mph - N/A   Overcast
12:45 PM 53.6 °F 48.2 °F 82% 29.93 in 5.0 mi ENE 6.9 mph - N/A   Overcast
1:05 PM 53.6 °F 50.0 °F 88% 29.92 in 1.5 mi NNE 4.6 mph - N/A   Overcast
1:25 PM 51.8 °F 50.0 °F 94% 29.93 in 5.0 mi Calm Calm - N/A   Overcast
1:45 PM 51.8 °F 50.0 °F 94% 29.94 in 2.5 mi NNE 3.5 mph - N/A   Overcast
2:05 PM 51.8 °F 50.0 °F 94% 29.94 in 1.0 mi ENE 3.5 mph - N/A   Overcast
2:25 PM 51.8 °F 50.0 °F 94% 29.96 in 2.0 mi Calm Calm - N/A   Overcast
2:45 PM 51.8 °F 50.0 °F 94% 29.94 in 1.5 mi Calm Calm - N/A   Overcast
3:05 PM 51.8 °F 50.0 °F 94% 29.96 in 3.0 mi NE 3.5 mph - N/A   Overcast
3:25 PM 51.8 °F 50.0 °F 94% 29.93 in 5.0 mi ENE 8.1 mph - N/A   Overcast
3:45 PM 51.8 °F 50.0 °F 94% 29.93 in 7.0 mi ENE 6.9 mph - N/A   Overcast
4:25 PM 51.8 °F 50.0 °F 94% 29.93 in 10.0 mi NE 4.6 mph - N/A   Overcast
4:45 PM 51.8 °F 50.0 °F 94% 29.93 in 10.0 mi NE 4.6 mph - N/A   Overcast
5:05 PM 51.8 °F 50.0 °F 94% 29.95 in 10.0 mi ENE 5.8 mph - N/A   Overcast
5:25 PM 51.8 °F 50.0 °F 94% 29.93 in 10.0 mi NNE 5.8 mph - N/A   Overcast
5:45 PM 51.8 °F 50.0 °F 94% 29.92 in 10.0 mi NNE 8.1 mph - N/A   Overcast
6:05 PM 51.8 °F 50.0 °F 94% 29.92 in 10.0 mi NE 10.4 mph 17.3 mph N/A   Overcast
6:25 PM 51.8 °F 50.0 °F 94% 29.93 in 10.0 mi NE 3.5 mph - N/A   Overcast
6:45 PM 51.8 °F 50.0 °F 94% 29.94 in 10.0 mi ENE 4.6 mph - N/A   Overcast
7:05 PM 51.8 °F 50.0 °F 94% 29.95 in 10.0 mi ENE 6.9 mph - N/A   Overcast
7:25 PM 51.8 °F 48.2 °F 88% 29.94 in 10.0 mi NE 6.9 mph - N/A   Overcast
7:45 PM 51.8 °F 48.2 °F 88% 29.93 in 10.0 mi ENE 5.8 mph - N/A   Overcast
8:05 PM 51.8 °F 50.0 °F 94% 29.95 in 10.0 mi NE 5.8 mph - N/A   Overcast
8:25 PM 51.8 °F 48.2 °F 88% 29.97 in 10.0 mi NNE 3.5 mph - N/A   Overcast
8:45 PM 51.8 °F 48.2 °F 88% 29.97 in 10.0 mi NNE 3.5 mph - N/A   Overcast
9:05 PM 51.8 °F 48.2 °F 88% 29.97 in 10.0 mi Calm Calm - N/A   Overcast
9:25 PM 51.8 °F 48.2 °F 88% 29.97 in 10.0 mi NNE 3.5 mph - N/A   Overcast
9:45 PM 51.8 °F 48.2 °F 88% 29.97 in 10.0 mi NNE 3.5 mph - N/A   Overcast
10:05 PM 51.8 °F 48.2 °F 88% 29.99 in 10.0 mi North 4.6 mph - N/A   Overcast
10:25 PM 51.8 °F 48.2 °F 88% 30.00 in 10.0 mi NNE 4.6 mph - N/A   Overcast
11:25 PM 51.8 °F 48.2 °F 88% 30.00 in 10.0 mi North 4.6 mph - N/A   Overcast
11:45 PM 51.8 °F 48.2 °F 88% 30.01 in 10.0 mi NNE 5.8 mph - N/A   Overcast